Lid_Strength_Index
6 5 5 6 6 6 5 4 4 3 3 3 3 3 3 3 2 2 2 2 1 1 1 1 1 1 1 1 2 1 2 2
6 6 5 6 5 5 4 4 3 3 3 2 3 3 3 2 2 2 2 2 2 1 1 1 1 1 1 1 1 1 2 2
6 6 5 6 5 4 4 3 3 3 3 2 3 3 2 2 2 2 2 1 1 1 1 2 2 2 4 3 1 2 2 2
6 5 5 5 4 4 4 3 3 2 2 3 2 2 3 2 2 2 2 1 1 1 2 2 2 3 10 7 3 1 2 2
6 5 5 4 4 3 4 4 3 3 2 2 2 2 2 2 2 2 2 1 1 2 2 3 3 4 11 8 6 2 1 2
5 5 4 4 4 4 4 4 3 3 3 3 2 2 2 2 2 2 2 1 2 2 3 3 3 5 10 9 7 1 1 2
4 4 4 4 4 4 4 4 3 3 3 3 2 2 2 2 2 3 2 2 2 3 3 3 2 4 10 9 4 1 2 3
5 4 4 4 4 4 4 4 3 3 3 2 2 2 2 2 3 3 2 2 2 2 3 3 5 4 10 10 4 1 3 3
4 4 4 4 5 5 4 4 3 2 2 2 2 2 2 2 2 2 2 2 2 3 4 3 3 4 6 10 7 2 2 3
4 4 5 5 5 4 5 4 3 2 2 2 2 2 2 2 2 2 2 2 3 4 4 4 4 3 9 10 9 6 5 2
4 4 5 5 5 4 5 4 3 2 3 3 3 2 2 2 2 3 3 3 3 4 3 4 4 3 5 11 11 10 8 3
4 5 5 6 5 5 3 4 3 3 3 3 3 2 3 2 2 2 3 3 3 4 4 4 3 3 4 4 5 6 8 7
5 5 5 5 5 5 5 3 2 3 3 3 3 3 2 3 3 3 3 2 3 2 3 3 3 3 3 6 5 3 3 6
5 5 5 5 5 5 5 2 2 3 3 3 3 3 3 3 4 6 12 10 9 9 9 4 3 8 11 12 12 11 11 10
4 4 5 5 5 5 4 2 2 2 3 3 3 3 3 4 3 3 4 7 12 11 12 10 8 10 13 13 13 12 11 7
6 4 4 4 5 5 4 2 2 2 2 7 2 2 3 4 3 3 3 4 4 4 11 11 12 13 13 13 13 10 4 4
7 7 7 6 5 5 3 2 2 2 2 2 2 2 3 4 4 3 4 4 3 3 6 10 13 14 14 14 12 2 3 2
9 10 8 8 8 6 6 3 2 2 2 6 5 2 3 4 4 4 4 4 4 3 4 4 8 7 5 6 6 3 3 2
9 10 9 9 9 7 6 7 3 2 2 3 6 2 3 3 3 4 4 5 5 4 3 5 12 3 3 3 4 4 3 2
10 10 10 9 9 8 5 7 5 3 2 2 3 2 2 3 3 3 4 4 5 5 5 6 15 4 3 3 2 2 2 2